#timestamp,LO_Frequency,Hit,StdDev 
1573758015.3,286046997.4,N
1573758035.1,286046998.4,N
1573758055.8,286046998.1,N
1573758075.7,286046997.3,N
1573758095.5,286046996.9,N
1573758115.4,286046994.9,Y
1573758135.2,286047000.9,P
1573758155.0,286046999.7,N
1573758155.9,286046999.7,N
1573758175.8,286047004.3,N
1573758195.6,286047001.4,N
1573758215.4,286047004.3,N
1573758235.3,286047002.1,N
1573758255.1,286047002.6,N
1573758275.9,286046999.8,N
1573758295.7,286046999.9,N
1573758315.5,286047000.5,N
1573758335.4,286046999.9,N
1573758355.2,286047001.5,N
1573758375.0,286047003.9,N
1573758375.9,286047003.9,N
1573758395.8,286047004.4,N
1573758415.6,286047001.0,N
1573758435.5,286047000.9,N
1573758455.3,286046996.8,N
1573758475.1,286046996.5,N
1573758495.9,286046999.1,N
1573758515.7,286046997.2,N
1573758535.5,286046995.2,N
1573758555.4,286046995.5,N
1573758575.2,286046999.3,N
1573758595.1,286046996.9,N
1573758596.0,286046996.9,N
1573758615.8,286046995.7,N
1573758635.6,286046995.4,N
1573758655.5,286046996.7,N
1573758675.3,286046999.0,N
1573758695.1,286046999.0,N
1573758715.9,286046997.1,N
1573758735.7,286046994.3,N
1573758755.6,286046992.5,N
1573758775.4,286046988.6,Y
1573758795.2,286046990.4,P
1573758815.1,286046989.6,N
1573758816.0,286046989.6,N
1573758835.8,286046987.8,Y
1573758855.6,286046997.6,P
1573758875.5,286046997.6,N
1573758895.3,286046997.2,N
1573758915.2,286046998.9,N
1573758935.9,286046996.5,N
1573758955.7,286046999.4,N
1573758975.6,286046997.2,N
1573758995.4,286046997.5,N
1573759015.2,286046999.2,N
1573759035.1,286046996.7,N
1573759036.0,286046996.7,N
1573759055.8,286046996.0,N
1573759075.7,286046993.4,Y
1573759095.5,286047000.3,P
1573759115.3,286047000.5,N
1573759135.2,286047001.0,N
1573759155.0,286046999.2,N
1573759155.9,286046999.2,N
1573759175.7,286046998.5,N
1573759195.6,286047001.5,N
1573759215.4,286047004.2,Y
1573759235.3,286047001.4,P
1573759255.1,286047002.4,N
1573759275.8,286046999.9,N
1573759295.7,286046997.0,N
1573759315.5,286046999.6,N
1573759335.3,286047000.0,N
1573759355.2,286046998.2,N
1573759375.0,286047001.2,N
1573759375.9,286047001.2,N
1573759395.8,286046998.9,N
1573759415.6,286046997.4,N
1573759435.4,286046997.6,N
1573759455.3,286046997.6,N
1573759475.1,286046996.1,N
1573759495.8,286046995.5,N
1573759515.7,286046997.7,N
1573759535.5,286046996.5,N
1573759555.4,286046998.4,N
1573759575.2,286046999.2,N
1573759595.0,286046997.4,N
1573759595.9,286046997.4,N
1573759615.8,286046998.8,N
1573759635.6,286047000.9,N
1573759655.4,286046998.4,N
1573759675.3,286046999.3,N
1573759695.1,286046999.4,N
1573759715.9,286046999.9,N
1573759735.7,286047002.4,N
1573759755.5,286047001.8,N
1573759775.4,286047003.9,N
1573759795.2,286047000.1,N
1573759815.0,286047002.3,N
1573759815.9,286047002.3,N
1573759835.8,286047001.2,N
1573759855.6,286047000.6,N
1573759875.5,286047004.4,N
1573759895.3,286046999.7,N
1573759915.1,286047002.7,N
1573759935.9,286047002.8,N
1573759955.7,286047002.6,N
1573759975.5,286047006.0,N
1573759995.4,286047011.9,Y
1573760015.2,286047004.8,P
1573760035.1,286047006.3,N
1573760036.0,286047006.3,N
1573760055.8,286047003.4,N
1573760075.6,286047001.4,N
1573760095.5,286047001.8,N
1573760115.3,286047000.6,N
1573760135.1,286047000.7,N
1573760155.9,286046999.8,N
1573760175.7,286047001.8,N
1573760195.6,286047004.0,N
1573760215.4,286047004.4,N
1573760235.2,286047001.6,N
1573760255.1,286047004.2,N
1573760256.0,286047004.2,N
1573760275.8,286047003.9,N
1573760295.6,286047001.9,N
1573760315.5,286046999.7,N
1573760335.3,286047001.5,N
1573760355.2,286047000.5,N
1573760375.9,286047002.6,N
1573760395.7,286047001.4,N
1573760415.6,286047002.5,N
1573760435.4,286047001.8,N
1573760455.3,286047003.8,N
1573760475.1,286047004.6,N
1573760476.0,286047004.6,N
1573760495.8,286047003.3,N
1573760515.7,286047006.3,Y
1573760535.5,286047005.3,P
1573760555.4,286047003.6,N
1573760575.2,286047001.8,N
1573760595.0,286047000.8,N
1573760595.9,286047000.8,N
1573760615.8,286046998.9,N
1573760635.6,286046998.5,N
1573760655.4,286046998.1,N
1573760675.3,286047003.7,N
1573760695.1,286047004.7,N
1573760715.9,286047005.3,N
1573760735.7,286047005.8,N
1573760755.5,286047003.5,N
1573760775.4,286047002.5,N
1573760795.2,286046999.6,N
1573760815.0,286046995.9,N
1573760815.9,286046995.9,N
1573760835.8,286046990.3,Y
1573760855.6,286046982.3,P
1573760875.5,286046977.4,N
1573760895.3,286046978.1,N
1573760915.1,286046975.0,N
1573760935.9,286046971.8,N
1573760955.7,286046966.3,Y
1573760975.5,286046983.8,P
1573760995.4,286046983.0,P
1573761015.2,286046981.0,P
1573761035.1,286046981.7,Y
1573761036.0,286046981.7,P
1573761055.8,286046997.0,P
1573761075.6,286046996.6,N
1573761095.5,286046995.1,N
1573761115.3,286046997.4,N
1573761135.1,286046995.4,N
1573761155.9,286046996.3,N
1573761175.7,286046993.5,N
1573761195.6,286046992.2,N
1573761215.4,286046992.4,N
1573761235.2,286046992.0,N
1573761255.1,286046992.5,N
1573761256.0,286046992.5,N
1573761275.8,286046990.7,N
1573761295.6,286046987.1,N
1573761315.5,286046984.1,Y
1573761335.3,286046990.3,P
1573761355.2,286046988.9,P
1573761375.9,286046988.9,P
1573761395.7,286046989.8,Y
1573761415.6,286046998.2,P
1573761435.4,286047002.7,N
1573761455.3,286047004.3,N
1573761475.1,286047004.1,N
1573761476.0,286047004.1,N
1573761495.8,286047003.5,N
1573761515.7,286047004.1,N
1573761535.5,286047001.9,N
1573761555.3,286047004.0,N
1573761575.2,286047003.0,N
1573761595.0,286047008.2,N
1573761595.9,286047008.2,N
